sat.trackr.live / text

‹ back to catalog

STARLINK-35844

NORAD 66880 · 2025-283C

PAYLOAD ACTIVE UNKNOWN

§ Identity

Operator
Country
US
Launch date
2025-12-04
Launch site
AFWTR
Launch vehicle
Mass (kg)
RCS (m²)

Purposes: comms

External: N2YO · Heavens-Above · Gunter

§ Orbital elements

Epoch: 2026-09-20T05:48:11.672928Z

Period
93.85 min
Inclination
53.1580°
Eccentricity
0.0001336
Mean motion
15.34406992 rev/d
Perigee alt
461.8 km
Apogee alt
463.6 km
Semi-major
6,840.8 km
B*
4.9772e-4
RAAN
198.8870°
Arg perigee
89.3612°
Mean anomaly
270.7544°
Rev number
4,565

§ Raw data

STARLINK-358441 66880U 25283C   26263.24180177  .00016481  00000+0  49772-3 0  99982 66880  53.1580 198.8870 0001336  89.3612 270.7544 15.34406992 45657

JSON: /api/v1/satellites/66880 · /tle

For live sub-satellite position, see the globe view (requires WebGL).

§ Visibility from observer

Set your observer location to see the next 7 days of passes ≥ 10°. The values pass through the URL so the page stays shareable.

No JS? Fill the form by hand. The geolocation button needs JavaScript.